Location: UMBC
(39.2555°N, 76.7093°W)
Time: 15:07:05
(UTC+02:00)

Amateur Radio Satellites - All Passes

Search period start: 30 July 2016 14:37
Search period end: 31 July 2016 14:37
Location: UMBC, 39.2555°N, 76.7093°W

Satellite Date Start Highest point End Downlink Frequencies (MHz)
Time Altitude Azimuth
Cosmos 2491 30 Jul 14:40:58 14:49:39 62° 79° (E) 14:58:20 435.465 / 435.565
SEEDS 30 Jul 14:48:53 14:52:36 31° 97° (E) 14:56:19 437.485
COMPASS 1 30 Jul 14:54:31 14:57:58 25° 95° (E) 15:01:23 437.405
CUTE-I 30 Jul 14:58:04 15:01:31 18° 298° (WNW) 15:04:59 437.470
NOAA 15 30 Jul 15:08:57 15:10:15 11° 302° (WNW) 15:11:32 137.62
CINEMA 3 30 Jul 15:18:12 15:23:13 67° 285° (WNW) 15:28:06 145.822/145.860
AAUSAT CUBESAT 2 30 Jul 15:19:07 15:22:58 38° 98° (E) 15:26:48 437.432
HO-68 30 Jul 15:23:36 15:30:51 88° 107° (ESE) 15:38:03 435.675
FUNcube-1 30 Jul 15:24:29 15:27:14 16° 92° (E) 15:29:58 145.935
ZACube-1 30 Jul 15:27:03 15:30:11 19° 93° (E) 15:33:15 437.345
SO-50 30 Jul 15:27:21 15:30:27 17° 318° (NW) 15:33:32 436.795
ANTELSAT 30 Jul 15:31:24 15:34:27 17° 65° (ENE) 15:37:31 437.575/2403.000
DOVE 4 30 Jul 15:32:31 15:35:55 18° 295° (WNW) 15:39:22 437.250
UWE-3 30 Jul 15:33:28 15:37:40 35° 97° (E) 15:41:43 435.000/436.395/437.385
CANX-2 30 Jul 15:38:47 15:42:42 38° 288° (WNW) 15:46:35 2200.000
Cosmos 2504 30 Jul 15:42:41 15:49:05 23° 80° (E) 15:55:26 435.465 / 435.565
CUTE 1.7 + AOD 2 30 Jul 15:51:39 15:55:24 32° 289° (WNW) 15:59:08 437.475
PRISM 30 Jul 15:56:40 15:59:38 19° 265° (W) 16:02:38 437.425
Oscar 11 30 Jul 16:01:04 16:05:13 45° 99° (E) 16:09:19 145.826/435.025
CUBEBUG 2 30 Jul 16:02:33 16:07:15 74° 283° (WNW) 16:11:46 437.445
YUBILEINY 30 Jul 16:06:02 16:14:51 89° 91° (E) 16:23:45 435.215
TIGRISAT 30 Jul 16:10:29 16:14:50 40° 71° (ENE) 16:19:14 435.000
HUMSAT D 30 Jul 16:13:03 16:14:21 11° 90° (E) 16:15:39 437.325/437.525
RS-15 30 Jul 16:13:39 16:22:46 24° 338° (NNW) 16:32:11 29.354- 29.394
M-CUBED/EXP-1 PRIME 30 Jul 16:24:44 16:28:11 20° 98° (E) 16:31:34 437.505
SEEDS 30 Jul 16:25:04 16:28:06 20° 292° (WNW) 16:31:06 437.485
UNISAT 6 30 Jul 16:27:44 16:32:20 67° 74° (ENE) 16:37:01 437.425
COMPASS 1 30 Jul 16:30:06 16:33:25 24° 291° (WNW) 16:36:44 437.405
Cosmos 2491 30 Jul 16:38:53 16:45:48 27° 278° (W) 16:52:45 435.465 / 435.565
AUBIESAT-1 30 Jul 16:47:22 16:51:22 28° 100° (E) 16:55:16 437.475
DELFI C3 30 Jul 16:47:52 16:51:47 68° 101° (E) 16:55:42 145.870
NANOSAT C BR1 30 Jul 16:55:09 16:58:04 18° 67° (ENE) 17:00:59 145.865
AAUSAT CUBESAT 2 30 Jul 16:55:34 16:58:08 16° 293° (WNW) 17:00:43 437.432
DUCHIFAT 1 30 Jul 16:57:43 17:00:36 18° 66° (ENE) 17:03:31 145.980
FUNcube-1 30 Jul 16:59:30 17:03:42 42° 288° (WNW) 17:07:47 145.935
ZACube-1 30 Jul 17:02:29 17:06:36 36° 289° (WNW) 17:10:35 437.345
ANTELSAT 30 Jul 17:06:15 17:10:44 48° 261° (W) 17:15:19 437.575/2403.000
UWE-3 30 Jul 17:10:25 17:13:52 21° 293° (WNW) 17:17:14 435.000/436.395/437.385
HO-68 30 Jul 17:13:06 17:17:37 18° 304° (NW) 17:22:07 435.675
QB50P1 30 Jul 17:18:34 17:22:24 34° 71° (ENE) 17:26:17 145.935-145.965
POPSAT HIP 1 30 Jul 17:25:12 17:29:11 40° 72° (ENE) 17:33:12 437.405
Cosmos 2504 30 Jul 17:32:40 17:41:32 75° 279° (W) 17:50:22 435.465 / 435.565
Oscar 11 30 Jul 17:38:26 17:40:57 15° 295° (WNW) 17:43:29 145.826/435.025
CUBEBUG 1 30 Jul 17:38:54 17:40:32 12° 91° (E) 17:42:10 437.445
ESTCUBE 1 30 Jul 17:43:47 17:47:13 21° 94° (E) 17:50:38 437.505/2401.250
JAS-2 30 Jul 17:45:47 17:50:33 27° 68° (ENE) 17:55:01 435.910
HUMSAT D 30 Jul 17:46:14 17:50:18 53° 286° (WNW) 17:54:19 437.325/437.525
QB50P2 30 Jul 17:46:45 17:51:00 79° 77° (ENE) 17:55:17 145.880/145.840
VELOX 1 30 Jul 17:46:47 17:48:40 12° 91° (E) 17:50:32 145.980
TIGRISAT 30 Jul 17:48:20 17:51:39 19° 267° (W) 17:55:00 435.000
POLYITAN 1 30 Jul 17:49:22 17:53:37 81° 78° (ENE) 17:57:56 437.675
M-CUBED/EXP-1 PRIME 30 Jul 17:58:20 18:02:48 43° 293° (WNW) 18:07:12 437.505
YUBILEINY 30 Jul 18:07:12 18:12:53 18° 297° (WNW) 18:18:39 435.215
UNISAT 6 30 Jul 18:07:53 18:09:29 12° 270° (W) 18:11:05 437.425
DX 1 30 Jul 18:18:01 18:21:15 20° 94° (E) 18:24:27 434.975-435.025
AUBIESAT-1 30 Jul 18:21:40 18:25:43 30° 296° (WNW) 18:29:43 437.475
UKube-1 30 Jul 18:25:04 18:28:06 18° 94° (E) 18:31:07 .
NANOSAT C BR1 30 Jul 18:29:35 18:33:30 36° 262° (W) 18:37:28 145.865
AISAT 30 Jul 18:30:06 18:34:19 40° 99° (E) 18:38:32 437.250
BUGSAT 1 30 Jul 18:31:30 18:35:35 88° 247° (WSW) 18:39:47 437.445
DUCHIFAT 1 30 Jul 18:32:06 18:36:00 36° 262° (W) 18:39:58 145.980
RS-15 30 Jul 18:32:44 18:41:30 22° 15° (NNE) 18:50:20 29.354- 29.394
50 SAT 30 Jul 18:46:58 18:50:33 67° 101° (E) 18:54:06 437.505
SPROUT 30 Jul 18:50:46 18:54:36 30° 96° (E) 18:58:24 437.525
QB50P1 30 Jul 18:55:16 18:58:16 19° 267° (W) 19:01:17 145.935-145.965
POPSAT HIP 1 30 Jul 19:02:29 19:05:08 16° 267° (W) 19:07:47 437.405
Oscar 19 30 Jul 19:10:23 19:15:08 40° 70° (ENE) 19:19:54 437.125/150
CUBEBUG 1 30 Jul 19:12:49 19:17:10 58° 286° (WNW) 19:21:30 437.445
AIST 1 30 Jul 19:16:06 19:20:16 60° 94° (E) 19:24:28
AO-85 30 Jul 19:19:10 19:24:33 72° 119° (ESE) 19:29:42 145.980
ESTCUBE 1 30 Jul 19:20:02 19:24:04 33° 290° (WNW) 19:28:05 437.505/2401.250
Gurwin Techsat 1B 30 Jul 19:20:43 19:24:52 24° 65° (ENE) 19:29:01 435.225
VELOX 1 30 Jul 19:21:05 19:25:27 56° 286° (WNW) 19:29:49 145.980
JAS-2 30 Jul 19:30:01 19:35:31 38° 261° (W) 19:40:35 435.910
Cosmos 2504 30 Jul 19:31:43 19:36:25 15° 299° (WNW) 19:41:07 435.465 / 435.565
TISAT 1 30 Jul 19:33:31 19:36:43 20° 94° (E) 19:39:54 437.305
DX 1 30 Jul 19:53:32 19:57:30 34° 290° (WNW) 20:01:27 434.975-435.025
CUSAT 1 30 Jul 19:54:55 19:57:10 17° 78° (ENE) 19:59:45 437.405
UKube-1 30 Jul 20:00:16 20:04:14 36° 289° (WNW) 20:08:12 .
AISAT 30 Jul 20:07:25 20:10:28 18° 294° (WNW) 20:13:32 437.250
GONETS M04 30 Jul 20:17:17 20:23:55 25° 81° (E) 20:30:34
Cosmos 2499 30 Jul 20:24:35 20:30:36 21° 80° (E) 20:36:29 435.465 / 435.565
SPROUT 30 Jul 20:27:01 20:30:22 22° 292° (WNW) 20:33:42 437.525
ITUPSAT 1 30 Jul 20:27:11 20:29:50 15° 92° (E) 20:32:29 437.325
AO-7 30 Jul 20:46:04 20:53:28 37° 60° (ENE) 21:00:52 29.400- 29.500
RS-15 30 Jul 20:46:20 20:58:13 49° 46° (NE) 21:09:55 29.354- 29.394
Oscar 19 30 Jul 20:50:36 20:54:33 23° 266° (W) 20:58:33 437.125/150
DANDE 30 Jul 20:52:08 20:54:08 18° 78° (ENE) 20:56:20 436.750
ITAMSAT 1 30 Jul 20:52:18 20:57:23 55° 72° (ENE) 21:02:29 435.822/435.867
AIST 1 30 Jul 20:57:32 20:58:18 10° 291° (WNW) 20:59:03
Gurwin Techsat 1B 30 Jul 20:59:30 21:04:31 43° 261° (W) 21:09:35 435.225
AO-85 30 Jul 21:01:43 21:05:29 19° 315° (NW) 21:09:08 145.980
TISAT 1 30 Jul 21:08:37 21:12:24 31° 290° (WNW) 21:16:09 437.305
SWISSCUBE 30 Jul 21:16:42 21:21:24 56° 101° (E) 21:26:03 437.505
PHONESAT 2.4 30 Jul 21:18:46 21:21:13 22° 151° (SSE) 21:23:40 2401.200-2431.200
CUSAT 1 30 Jul 21:36:19 21:39:02 22° 263° (W) 21:42:16 437.405
BEESAT 30 Jul 21:37:35 21:42:23 84° 104° (ESE) 21:47:08 436.000
MOZHAYETS 4 30 Jul 21:47:35 21:49:38 13° 91° (E) 21:51:41
ITUPSAT 1 30 Jul 22:03:20 22:07:59 54° 287° (WNW) 22:12:36 437.325
GONETS M04 30 Jul 22:11:21 22:19:56 65° 280° (W) 22:28:38
Cosmos 2499 30 Jul 22:13:50 22:22:45 81° 278° (W) 22:31:24 435.465 / 435.565
SO-50 30 Jul 22:17:18 22:21:48 49° 54° (NE) 22:26:09 436.795
KKS-1 30 Jul 22:21:25 22:25:15 27° 96° (E) 22:29:03 437.445
ITAMSAT 1 30 Jul 22:33:49 22:37:10 17° 268° (W) 22:40:31 435.822/435.867
DANDE 30 Jul 22:36:14 22:36:43 10° 266° (W) 22:37:13 436.750
AO-7 30 Jul 22:37:52 22:45:55 51° 258° (WSW) 22:54:03 29.400- 29.500
HORYU 2 30 Jul 22:42:03 22:46:07 35° 70° (ENE) 22:50:13 437.375
STARS 30 Jul 22:49:52 22:53:39 27° 96° (E) 22:57:23 437.465
PHONESAT 2.4 30 Jul 22:54:23 22:57:27 84° 166° (SSE) 23:00:33 2401.200-2431.200
SWISSCUBE 30 Jul 22:55:57 22:58:42 15° 297° (WNW) 23:01:25 437.505
RS-15 30 Jul 22:59:08 23:10:59 56° 249° (WSW) 23:22:39 29.354- 29.394
CUTE-I 30 Jul 23:01:51 23:03:32 11° 59° (ENE) 23:05:14 437.470
BRITE-PL 30 Jul 23:06:29 23:08:41 14° 65° (ENE) 23:10:53 437.365/2234.400
NOAA 15 30 Jul 23:07:44 23:11:04 17° 62° (ENE) 23:14:25 137.62
CUBESAT XI-V 30 Jul 23:16:43 23:19:09 14° 91° (E) 23:21:35 437.345
BEESAT 30 Jul 23:18:29 23:19:26 11° 300° (WNW) 23:20:23 436.000
MOZHAYETS 4 30 Jul 23:22:40 23:27:09 56° 286° (WNW) 23:31:35
PCSat 30 Jul 23:40:54 23:43:57 15° 104° (ESE) 23:47:01 145.827
GOMX 1 30 Jul 23:48:27 23:51:21 18° 66° (ENE) 23:54:21 467.674
LilacSat-2 30 Jul 23:57:51 00:01:09 27° 71° (ENE) 00:04:29 437.200
KKS-1 30 Jul 23:57:58 00:01:43 27° 292° (WNW) 00:05:28 437.445
SO-50 30 Jul 23:58:53 00:01:50 17° 251° (WSW) 00:04:44 436.795
NOAA 18 31 Jul 00:05:52 00:11:07 46° 70° (ENE) 00:16:24 137.9125
BEESAT 3 31 Jul 00:06:27 00:10:22 87° 308° (NW) 00:14:19 437.485
HO-68 31 Jul 00:09:41 00:11:19 11° 50° (NE) 00:12:58 435.675
Cosmos 2499 31 Jul 00:12:05 00:17:09 16° 297° (WNW) 00:22:10 435.465 / 435.565
Cubesat XI-IV 31 Jul 00:15:08 00:20:21 54° 72° (ENE) 00:25:36 437.490
GONETS M04 31 Jul 00:16:03 00:18:42 11° 303° (WNW) 00:21:23
HORYU 2 31 Jul 00:19:25 00:22:45 20° 266° (W) 00:26:05 437.375
BEESAT 2 31 Jul 00:20:17 00:24:12 68° 119° (ESE) 00:28:09 435.950
STARS 31 Jul 00:26:11 00:29:54 26° 292° (WNW) 00:33:36 437.465
PHONESAT 2.4 31 Jul 00:30:58 00:34:02 68° 3° (N) 00:37:06 2401.200-2431.200
CUTE-I 31 Jul 00:37:22 00:42:45 87° 75° (ENE) 00:48:10 437.470
BRITE-PL 31 Jul 00:42:50 00:46:47 43° 261° (W) 00:50:48 437.365/2234.400
NOAA 15 31 Jul 00:45:10 00:50:20 59° 259° (WSW) 00:55:32 137.62
CINEMA 3 31 Jul 00:45:37 00:46:29 10° 60° (ENE) 00:47:21 145.822/145.860
CUBESAT XI-V 31 Jul 00:52:20 00:56:50 53° 287° (WNW) 01:01:19 437.345
CANX-2 31 Jul 00:57:30 00:58:44 11° 64° (ENE) 00:59:57 2200.000
DOVE 4 31 Jul 00:58:16 01:02:25 47° 72° (ENE) 01:06:50 437.250
CUTE 1.7 + AOD 2 31 Jul 01:09:16 01:11:18 13° 65° (ENE) 01:13:19 437.475
AIST 2 31 Jul 01:18:32 01:19:54 11° 108° (ESE) 01:21:16 435.215
PCSat 31 Jul 01:21:20 01:26:43 68° 300° (WNW) 01:32:09 145.827
GOMX 1 31 Jul 01:25:18 01:29:09 35° 263° (W) 01:33:12 467.674
LilacSat-2 31 Jul 01:32:36 01:35:26 19° 266° (W) 01:38:18 437.200
ISS 31 Jul 01:34:53 01:37:37 25° 133° (SE) 01:40:23 145.825
SEEDS 31 Jul 01:40:02 01:43:08 20° 68° (ENE) 01:46:15 437.485
COMPASS 1 31 Jul 01:45:06 01:47:39 16° 66° (ENE) 01:50:12 437.405
NOAA 18 31 Jul 01:47:41 01:51:58 23° 266° (W) 01:56:16 137.9125
BEESAT 3 31 Jul 01:48:18 01:48:39 10° 319° (NW) 01:49:01 437.485
HO-68 31 Jul 01:50:32 01:57:33 60° 69° (ENE) 02:04:37 435.675
Cosmos 2491 31 Jul 01:50:58 01:53:50 12° 74° (ENE) 01:56:44 435.465 / 435.565
Cubesat XI-IV 31 Jul 01:57:06 02:00:43 18° 267° (W) 02:04:23 437.490
O/OREOS (USA 219) 31 Jul 01:58:57 02:03:13 46° 106° (ESE) 02:07:30 437.305
BEESAT 2 31 Jul 02:00:34 02:02:28 13° 317° (NW) 02:04:22 435.950
PHONESAT 2.4 31 Jul 02:07:30 02:10:31 53° 200° (SSW) 02:13:32 2401.200-2431.200
AAUSAT CUBESAT 2 31 Jul 02:08:39 02:11:55 23° 69° (ENE) 02:15:12 437.432
STRAND 1 31 Jul 02:17:27 02:22:32 63° 102° (ESE) 02:27:34 437.568
YUBILEINY 31 Jul 02:17:54 02:26:13 43° 74° (ENE) 02:34:26 435.215
CINEMA 3 31 Jul 02:18:14 02:22:47 84° 255° (WSW) 02:27:36 145.822/145.860
FUNcube-1 31 Jul 02:19:48 02:21:50 13° 63° (ENE) 02:23:51 145.935
ZACube-1 31 Jul 02:22:24 02:24:56 15° 64° (ENE) 02:27:27 437.345
CUTE-I 31 Jul 02:22:26 02:23:26 10° 271° (W) 02:24:25 437.470
UWE-3 31 Jul 02:29:15 02:33:05 26° 68° (ENE) 02:36:58 435.000/436.395/437.385
CANX-2 31 Jul 02:29:47 02:34:01 65° 259° (W) 02:38:16 2200.000
DOVE 4 31 Jul 02:38:03 02:40:28 15° 270° (W) 02:42:58 437.250
CUTE 1.7 + AOD 2 31 Jul 02:42:30 02:46:41 53° 261° (W) 02:50:51 437.475
AIST 2 31 Jul 02:53:47 02:57:50 59° 304° (WNW) 03:01:55 435.215
Oscar 11 31 Jul 02:54:47 02:58:36 31° 70° (ENE) 03:02:26 145.826/435.025
CUBEBUG 2 31 Jul 02:58:48 03:03:24 80° 76° (ENE) 03:08:10 437.445
PCSat 31 Jul 03:09:09 03:11:09 12° 320° (NW) 03:13:10 145.827
M-CUBED/EXP-1 PRIME 31 Jul 03:10:34 03:13:18 18° 60° (ENE) 03:16:11 437.505
ISS 31 Jul 03:10:59 03:13:58 33° 329° (NNW) 03:16:58 145.825
SEEDS 31 Jul 03:14:51 03:18:37 32° 263° (W) 03:22:25 437.485
COMPASS 1 31 Jul 03:18:55 03:22:52 40° 262° (W) 03:26:49 437.405
Cosmos 2504 31 Jul 03:27:59 03:35:20 38° 73° (ENE) 03:42:11 435.465 / 435.565
AUBIESAT-1 31 Jul 03:32:30 03:35:48 26° 63° (ENE) 03:39:18 437.475
DELFI C3 31 Jul 03:32:44 03:36:17 32° 72° (ENE) 03:39:50 145.870
PRISM 31 Jul 03:37:46 03:41:49 56° 101° (E) 03:45:51 437.425
O/OREOS (USA 219) 31 Jul 03:39:56 03:42:52 17° 304° (WNW) 03:45:49 437.305
HO-68 31 Jul 03:39:58 03:45:38 25° 266° (W) 03:51:21 435.675
Cosmos 2491 31 Jul 03:40:22 03:49:01 74° 94° (E) 03:57:41 435.465 / 435.565
AAUSAT CUBESAT 2 31 Jul 03:43:45 03:47:16 27° 264° (W) 03:50:49 437.432
PHONESAT 2.4 31 Jul 03:45:22 03:46:34 12° 214° (SW) 03:47:46 2401.200-2431.200
AO-85 31 Jul 03:52:50 03:57:00 40° 52° (NE) 04:00:50 145.980
FUNcube-1 31 Jul 03:52:59 03:57:29 64° 259° (W) 04:02:03 145.935
ZACube-1 31 Jul 03:56:15 04:00:42 55° 260° (W) 04:05:14 437.345
STRAND 1 31 Jul 03:58:12 04:01:08 16° 298° (WNW) 04:04:05 437.568
UWE-3 31 Jul 04:05:23 04:09:24 29° 264° (W) 04:13:29 435.000/436.395/437.385
YUBILEINY 31 Jul 04:14:53 04:22:53 40° 274° (W) 04:30:50 435.215
UNISAT 6 31 Jul 04:22:09 04:24:48 15° 91° (E) 04:27:26 437.425
Oscar 11 31 Jul 04:31:23 04:34:44 22° 266° (W) 04:38:06 145.826/435.025
HUMSAT D 31 Jul 04:35:39 04:39:58 88° 76° (ENE) 04:44:18 437.325/437.525
ESTCUBE 1 31 Jul 04:42:48 04:45:52 18° 66° (ENE) 04:48:55 437.505/2401.250
M-CUBED/EXP-1 PRIME 31 Jul 04:43:58 04:47:30 35° 258° (WSW) 04:51:21 437.505
VELOX 1 31 Jul 04:44:44 04:45:30 10° 62° (ENE) 04:46:16 145.980
ISS 31 Jul 04:50:05 04:51:11 11° 349° (NNW) 04:52:16 145.825
ANTELSAT 31 Jul 04:59:10 05:03:28 38° 98° (E) 05:07:38 437.575/2403.000
AUBIESAT-1 31 Jul 05:07:00 05:10:11 24° 261° (W) 05:13:36 437.475
DELFI C3 31 Jul 05:08:36 05:11:12 17° 267° (W) 05:13:49 145.870
DX 1 31 Jul 05:13:16 05:15:53 16° 65° (ENE) 05:18:31 434.975-435.025
PRISM 31 Jul 05:15:08 05:16:37 12° 296° (WNW) 05:18:07 437.425
UKube-1 31 Jul 05:19:27 05:21:48 15° 64° (ENE) 05:24:10 .
Cosmos 2504 31 Jul 05:21:25 05:28:40 39° 273° (W) 05:35:27 435.465 / 435.565
50 SAT 31 Jul 05:23:46 05:26:46 24° 70° (ENE) 05:29:46 437.505
AIST 1 31 Jul 05:25:29 05:27:47 14° 71° (ENE) 05:30:07
AISAT 31 Jul 05:26:31 05:30:24 31° 70° (ENE) 05:34:18 437.250
AO-85 31 Jul 05:34:16 05:37:01 17° 251° (WSW) 05:39:38 145.980
QB50P2 31 Jul 05:34:20 05:36:34 14° 92° (E) 05:38:49 145.880/145.840
POLYITAN 1 31 Jul 05:36:54 05:39:14 14° 92° (E) 05:41:32 437.675
TIGRISAT 31 Jul 05:39:26 05:44:03 81° 284° (WNW) 05:48:32 435.000
Cosmos 2491 31 Jul 05:40:09 05:46:41 23° 294° (WNW) 05:53:16 435.465 / 435.565
SPROUT 31 Jul 05:43:44 05:46:57 21° 67° (ENE) 05:50:11 437.525
UNISAT 6 31 Jul 05:57:22 06:01:48 48° 287° (WNW) 06:06:06 437.425
CUBEBUG 1 31 Jul 06:07:21 06:11:39 82° 259° (W) 06:16:00 437.445
NANOSAT C BR1 31 Jul 06:14:48 06:18:46 36° 98° (E) 06:22:40 145.865
BUGSAT 1 31 Jul 06:15:41 06:18:07 15° 92° (E) 06:20:32 437.445
VELOX 1 31 Jul 06:16:57 06:21:19 74° 257° (WSW) 06:25:44 145.980
DUCHIFAT 1 31 Jul 06:17:02 06:20:58 35° 97° (E) 06:24:53 145.980
ESTCUBE 1 31 Jul 06:18:07 06:22:21 41° 261° (W) 06:26:36 437.505/2401.250
TISAT 1 31 Jul 06:25:11 06:27:25 14° 64° (ENE) 06:29:39 437.305
ISS 31 Jul 06:28:00 06:28:48 11° 9° (N) 06:29:37 145.825
GONETS M04 31 Jul 06:30:36 06:32:35 11° 57° (ENE) 06:34:35
ANTELSAT 31 Jul 06:36:33 06:39:52 20° 294° (WNW) 06:43:08 437.575/2403.000
JAS-2 31 Jul 06:39:05 06:43:32 25° 96° (E) 06:48:20 435.910
QB50P1 31 Jul 06:39:26 06:43:44 76° 102° (ESE) 06:48:00 145.935-145.965
POPSAT HIP 1 31 Jul 06:46:18 06:50:38 89° 113° (ESE) 06:54:53 437.405
DX 1 31 Jul 06:47:33 06:51:41 45° 261° (W) 06:55:52 434.975-435.025
UKube-1 31 Jul 06:53:16 06:57:25 49° 260° (W) 07:01:37 .
50 SAT 31 Jul 06:57:43 07:00:21 19° 265° (W) 07:03:00 437.505
AIST 1 31 Jul 07:01:28 07:05:39 46° 267° (W) 07:09:50
AISAT 31 Jul 07:03:30 07:06:53 22° 265° (W) 07:10:18 437.250
QB50P2 31 Jul 07:08:30 07:12:37 46° 287° (WNW) 07:16:42 145.880/145.840
POLYITAN 1 31 Jul 07:11:09 07:15:16 45° 287° (WNW) 07:19:19 437.675
SPROUT 31 Jul 07:18:52 07:22:41 31° 263° (W) 07:26:33 437.525
Oscar 19 31 Jul 07:24:08 07:27:08 15° 92° (E) 07:30:06 437.125/150
JUGNU 31 Jul 07:29:55 07:31:03 11° 176° (S) 07:32:12 437.505
ITUPSAT 1 31 Jul 07:33:05 07:36:05 17° 64° (ENE) 07:39:05 437.325
BUGSAT 1 31 Jul 07:49:38 07:53:41 44° 288° (WNW) 07:57:43 437.445
NANOSAT C BR1 31 Jul 07:51:14 07:54:12 19° 293° (WNW) 07:57:10 145.865
DUCHIFAT 1 31 Jul 07:53:24 07:56:24 19° 293° (WNW) 07:59:22 145.980
TISAT 1 31 Jul 07:58:34 08:02:37 48° 260° (W) 08:06:44 437.305
ISS 31 Jul 08:03:11 08:06:05 28° 29° (NNE) 08:08:58 145.825
Cosmos 2499 31 Jul 08:07:57 08:14:45 33° 71° (ENE) 08:21:07 435.465 / 435.565
SWISSCUBE 31 Jul 08:21:53 08:26:34 58° 73° (ENE) 08:31:17 437.505
GONETS M04 31 Jul 08:22:43 08:31:28 62° 79° (E) 08:40:11
JAS-2 31 Jul 08:23:41 08:28:44 41° 289° (WNW) 08:34:13 435.910
BEESAT 3 31 Jul 08:24:43 08:28:26 37° 53° (NE) 08:32:06 437.485
PCSat 31 Jul 08:28:47 08:31:20 13° 41° (NE) 08:33:52 145.827
BEESAT 2 31 Jul 08:39:28 08:42:59 29° 51° (NE) 08:46:29 435.950
BEESAT 31 Jul 08:42:39 08:47:26 85° 78° (ENE) 08:52:15 436.000
MOZHAYETS 4 31 Jul 08:49:14 08:51:01 12° 63° (ENE) 08:52:50
CUSAT 1 31 Jul 08:58:03 09:00:46 19° 96° (E) 09:03:07 437.405
Oscar 19 31 Jul 09:01:42 09:06:49 60° 287° (WNW) 09:11:55 437.125/150
ITAMSAT 1 31 Jul 09:07:02 09:10:53 21° 94° (E) 09:14:43 435.822/435.867
ITUPSAT 1 31 Jul 09:08:48 09:13:29 52° 260° (W) 09:18:11 437.325
Gurwin Techsat 1B 31 Jul 09:16:21 09:21:42 83° 103° (ESE) 09:27:01 435.225
KKS-1 31 Jul 09:18:46 09:22:12 23° 67° (ENE) 09:25:40 437.445
ISS 31 Jul 09:39:34 09:42:31 31° 225° (SW) 09:45:26 145.825
STARS 31 Jul 09:45:48 09:49:09 22° 67° (ENE) 09:52:32 437.465
SRMSAT 31 Jul 09:54:45 09:55:51 10° 177° (S) 09:56:59 437.500
DANDE 31 Jul 09:58:41 10:03:40 44° 98° (E) 10:07:28 436.750
Cosmos 2499 31 Jul 10:00:53 10:07:58 43° 272° (W) 10:14:38 435.465 / 435.565
SWISSCUBE 31 Jul 10:02:16 10:04:43 14° 268° (W) 10:07:10 437.505
BEESAT 3 31 Jul 10:03:08 10:05:49 18° 249° (WSW) 10:08:29 437.485
PCSat 31 Jul 10:10:12 10:15:40 77° 62° (ENE) 10:21:03 145.827
BEESAT 2 31 Jul 10:17:28 10:20:41 23° 248° (WSW) 10:23:53 435.950
CUBESAT XI-V 31 Jul 10:19:48 10:21:57 13° 63° (ENE) 10:24:04 437.345
GONETS M04 31 Jul 10:20:36 10:27:36 28° 278° (W) 10:34:37
MOZHAYETS 4 31 Jul 10:22:59 10:27:35 69° 259° (WSW) 10:32:13
AO-7 31 Jul 10:40:16 10:48:31 60° 104° (ESE) 10:56:41 29.400- 29.500
CUSAT 1 31 Jul 10:40:26 10:42:38 15° 283° (WNW) 10:44:36 437.405
ITAMSAT 1 31 Jul 10:45:37 10:50:33 44° 290° (WNW) 10:55:25 435.822/435.867
KKS-1 31 Jul 10:54:37 10:58:35 32° 263° (W) 11:02:35 437.445
Gurwin Techsat 1B 31 Jul 10:58:36 11:00:54 13° 300° (WNW) 11:03:12 435.225
RS-15 31 Jul 11:10:35 11:19:40 29° 102° (ESE) 11:29:03 29.354- 29.394
AIST 2 31 Jul 11:15:57 11:20:06 61° 57° (ENE) 11:24:13 435.215
STARS 31 Jul 11:21:21 11:25:18 33° 263° (W) 11:29:18 437.465
DANDE 31 Jul 11:43:49 11:46:17 14° 284° (WNW) 11:48:29 436.750
CUBESAT XI-V 31 Jul 11:54:13 11:58:47 62° 259° (W) 12:03:21 437.345
PCSat 31 Jul 11:55:52 11:58:19 13° 257° (WSW) 12:00:46 145.827
O/OREOS (USA 219) 31 Jul 12:09:39 12:14:12 76° 68° (ENE) 12:18:46 437.305
HORYU 2 31 Jul 12:09:54 12:14:23 83° 102° (ESE) 12:18:50 437.375
NOAA 18 31 Jul 12:29:45 12:33:50 21° 94° (E) 12:37:53 137.9125
SO-50 31 Jul 12:31:07 12:34:46 21° 111° (ESE) 12:38:24 436.795
AO-7 31 Jul 12:33:46 12:40:46 31° 302° (WNW) 12:47:45 29.400- 29.500
Cubesat XI-IV 31 Jul 12:34:08 12:38:19 23° 94° (E) 12:42:29 437.490
BRITE-PL 31 Jul 12:46:49 12:51:46 59° 100° (E) 12:57:06 437.365/2234.400
CUTE-I 31 Jul 12:55:48 13:00:45 37° 98° (E) 13:05:38 437.470
AIST 2 31 Jul 12:56:39 12:58:02 11° 252° (WSW) 12:59:25 435.215
DOVE 4 31 Jul 12:58:34 13:02:01 17° 91° (E) 13:05:27 437.250
NOAA 15 31 Jul 13:01:13 13:06:24 56° 101° (E) 13:11:35 137.62
LilacSat-2 31 Jul 13:05:52 13:09:36 46° 99° (E) 13:13:17 437.200
RS-15 31 Jul 13:19:21 13:30:49 77° 303° (WNW) 13:43:00 29.354- 29.394
GOMX 1 31 Jul 13:26:25 13:31:37 68° 101° (E) 13:37:02 467.674
STRAND 1 31 Jul 13:32:06 13:37:14 81° 77° (ENE) 13:42:25 437.568
Cosmos 2491 31 Jul 13:52:23 14:00:11 34° 72° (ENE) 14:07:58 435.465 / 435.565
NOAA 18 31 Jul 14:09:25 14:14:45 50° 289° (WNW) 14:20:02 137.9125
SO-50 31 Jul 14:10:15 14:14:57 46° 307° (NW) 14:19:37 436.795
Cubesat XI-IV 31 Jul 14:13:31 14:18:32 42° 290° (WNW) 14:23:30 437.490
CINEMA 3 31 Jul 14:14:22 14:18:40 28° 95° (E) 14:22:51 145.822/145.860
CANX-2 31 Jul 14:16:27 14:19:47 22° 95° (E) 14:23:04 2200.000
PRISM 31 Jul 14:26:13 14:29:54 34° 71° (ENE) 14:33:35 437.425
BRITE-PL 31 Jul 14:26:43 14:29:51 17° 294° (WNW) 14:33:08 437.365/2234.400
CUTE 1.7 + AOD 2 31 Jul 14:28:46 14:32:20 27° 96° (E) 14:35:54 437.475
